Regional Weather Roundup
Issued by NWS Cleveland, OH

Home | Current Version | Previous Version | Graphics & Text | Print | Product List | Glossary On
Versions: 1 2 3 4 5 6 7 8 9 10 11 12 13 14 15 16 17 18 19 20 21 22 23 24 25 26 27 28 29 30 31 32 33 34 35 36 37 38 39 40 41 42 43 44 45 46 47 48 49 50
000
ASUS41 KCLE 210702
RWRCLE
OHIO REGIONAL WEATHER ROUNDUP
NATIONAL WEATHER SERVICE CLEVELAND, OH
200 AM EST WED FEB 21 2018

NOTE: "FAIR" INDICATES FEW OR NO CLOUDS BELOW 12,000 FEET WITH NO
SIGNIFICANT WEATHER AND/OR OBSTRUCTIONS TO VISIBILITY.

OHZ001>008-015>018-024>027-034-035-043-044-210800-
   NORTHWEST OHIO

CITY           SKY/WX    TMP DP  RH WIND       PRES   REMARKS
DEFIANCE       HVY RAIN  54  53  97 CALM      30.05R FOG
FINDLAY        CLOUDY    59  53  80 S3        30.04F
TOLEDO EXPRESS LGT RAIN  56  56 100 SE5       30.03F
TOLEDO EXEC    CLOUDY    56  53  90 SE5       30.04F
LIMA           MOCLDY    63  56  78 S7        30.05F
$$

OHZ009>014-019>023-028>033-038-089-210800-
   NORTHEAST OHIO

CITY           SKY/WX    TMP DP  RH WIND       PRES   REMARKS
CLE-HOPKINS    MOCLDY    68  54  60 S14       30.10R
CLE-LAKEFRONT  FAIR      69  52  54 S16G25    30.07R
CUY CO. ARPT   NOT AVBL
LORAIN-ELYRIA  FAIR      66  51  58 S14       30.07F
ASHTABULA      MOCLDY    66  53  63 SW15G23   30.11S
AKRON-CANTON   FAIR      66  51  58 S18       30.13F
WOOSTER        FAIR      64  52  64 S9        30.12S
MANSFIELD      CLOUDY    66  55  67 S17G31    30.09F
YOUNGSTOWN     CLOUDY    67  51  56 S10       30.14S
$$

OHZ042-051>053-060>062-070>072-077>081-210800-
  SOUTHWEST OHIO

CITY           SKY/WX    TMP DP  RH WIND       PRES   REMARKS
CINC-COVINGTON FAIR      67  59  75 S16G26    30.11S
CINC-LUNKEN    FAIR      67  58  72 S13       30.12S
HAMILTON       FAIR      69  59  70 S9G17     30.11S
DAYTON         MOCLDY    67  59  75 S17G25    30.09F
WRIGHT-PAT AFB CLOUDY    68  57  68 S16       30.09S
DAYTON GENERAL MOCLDY    67  57  70 S14G23    30.09F
WILMINGTON     FAIR      64  57  78 S14       30.12F
$$

OHZ036-037-039>041-045>050-054>059-063>069-073>076-082>088-210800-
  CENTRAL AND SOUTHEAST OHIO

CITY           SKY/WX    TMP DP  RH WIND       PRES   REMARKS
COLUMBUS       MOCLDY    67  54  63 S14       30.13F
OSU AIRPORT    MOCLDY    67  56  67 S10       30.12S
BOLTON FIELD   CLOUDY    63  55  74 S9        30.14S
RICKENBACK AFB FAIR      63  54  71 S10       30.13F
NEWARK         FAIR      66  53  63 S10       30.14S
MARION         CLOUDY    66  55  67 SW20G26   30.09F
LANCASTER      FAIR      68  54  60 S13G23    30.15F
ZANESVILLE     CLOUDY    68  52  56 S12       30.17S
NEW PHILLY     NOT AVBL
$$




USA.gov is the U.S. government's official web portal to all federal, state and local government web resources and services.